^^
Meteo Knjazevac Station Historical Data
Daily Summary for December 21, 2021 Units:  Metric    English   Both
Daily Weekly Monthly Yearly Custom
  High: Low: Average:
Temperature: 1.7 °C 0.9 °C 1.4 °C
Dew Point: -1.4 °C -1.8 °C -1.6 °C
Humidity: 84% 79% 81%
Wind Speed: 14.5km/h 9.7km/h 11.3km/h
Wind Gust: 30.6km/h - -
Wind- - WSW
Pressure: 1021.9 hPa 1021.2 hPa -
Precipitation: 0 mm    
Historical Graphs
 
 
Tabular Data for December 21, 2021
Time Temperature Dew Point Pressure Wind Wind Speed Wind Gust Humidity Rainfall Rate (Hourly) solar Conditions
00:00 1.7 °C -1.4 °C 1021.2 hPa WSW 11.3 km/h 20.9 km/h 80% 0 mm 0 W/m2
00:10 1.7 °C -1.4 °C 1021.2 hPa WSW 11.3 km/h 19.3 km/h 80% 0 mm 0 W/m2
00:20 1.7 °C -1.4 °C 1021.2 hPa WSW 11.3 km/h 22.5 km/h 80% 0 mm 0 W/m2
00:30 1.7 °C -1.6 °C 1021.2 hPa West 9.7 km/h 20.9 km/h 79% 0 mm 0 W/m2
00:40 1.6 °C -1.6 °C 1021.6 hPa WSW 9.7 km/h 20.9 km/h 79% 0 mm 0 W/m2
00:50 1.6 °C -1.7 °C 1021.6 hPa WSW 11.3 km/h 20.9 km/h 79% 0 mm 0 W/m2
01:00 1.6 °C -1.7 °C 1021.6 hPa WSW 9.7 km/h 19.3 km/h 79% 0 mm 0 W/m2
01:10 1.6 °C -1.7 °C 1021.6 hPa WSW 9.7 km/h 17.7 km/h 79% 0 mm 0 W/m2
01:20 1.6 °C -1.7 °C 1021.6 hPa WSW 9.7 km/h 20.9 km/h 79% 0 mm 0 W/m2
01:30 1.5 °C -1.7 °C 1021.6 hPa WSW 9.7 km/h 19.3 km/h 79% 0 mm 0 W/m2
01:40 1.5 °C -1.7 °C 1021.6 hPa WSW 12.9 km/h 22.5 km/h 79% 0 mm 0 W/m2
01:50 1.4 °C -1.7 °C 1021.6 hPa WSW 12.9 km/h 30.6 km/h 80% 0 mm 0 W/m2
02:00 1.4 °C -1.5 °C 1021.9 hPa WSW 12.9 km/h 22.5 km/h 81% 0 mm 0 W/m2
02:10 1.2 °C -1.7 °C 1021.9 hPa WSW 12.9 km/h 20.9 km/h 81% 0 mm 0 W/m2
02:20 1.2 °C -1.7 °C 1021.9 hPa WSW 12.9 km/h 20.9 km/h 81% 0 mm 0 W/m2
02:30 1.1 °C -1.8 °C 1021.9 hPa WSW 12.9 km/h 19.3 km/h 81% 0 mm 0 W/m2
02:40 1.1 °C -1.6 °C 1021.9 hPa WSW 11.3 km/h 24.1 km/h 82% 0 mm 0 W/m2
02:50 1 °C -1.6 °C 1021.9 hPa WSW 12.9 km/h 20.9 km/h 83% 0 mm 0 W/m2
03:00 1 °C -1.6 °C 1021.9 hPa WSW 9.7 km/h 20.9 km/h 83% 0 mm 0 W/m2
03:10 1 °C -1.4 °C 1021.9 hPa WSW 9.7 km/h 24.1 km/h 84% 0 mm 0 W/m2
03:20 0.9 °C -1.5 °C 1021.9 hPa WSW 11.3 km/h 20.9 km/h 84% 0 mm 0 W/m2
03:30 0.9 °C -1.7 °C 1021.9 hPa WSW 14.5 km/h 22.5 km/h 83% 0 mm 0 W/m2
Knjazevac, Serbia
Compliments of Weather Underground - 2 mb